TimeEDT,TemperatureF,Dew PointF,Humidity,Sea Level PressureIn,VisibilityMPH,Wind Direction,Wind SpeedMPH,Gust SpeedMPH,PrecipitationIn,Events,Conditions,WindDirDegrees,DateUTC
12:54 AM,54.0,41.0,62,30.24,10.0,SSE,19.6,27.6,N/A,,Mostly Cloudy,150,2013-04-16 04:54:00
1:54 AM,54.0,42.1,64,30.23,10.0,SE,12.7,21.9,N/A,,Mostly Cloudy,130,2013-04-16 05:54:00
2:44 AM,53.6,42.8,67,30.23,10.0,SE,8.1,-,N/A,,Overcast,140,2013-04-16 06:44:00
2:54 AM,54.0,42.1,64,30.22,10.0,SE,9.2,24.2,N/A,,Overcast,130,2013-04-16 06:54:00
3:35 AM,53.6,42.8,67,30.21,10.0,SE,17.3,31.1,N/A,,Mostly Cloudy,140,2013-04-16 07:35:00
3:54 AM,54.0,43.0,66,30.22,10.0,SSE,10.4,27.6,N/A,,Mostly Cloudy,150,2013-04-16 07:54:00
4:02 AM,53.6,42.8,67,30.22,10.0,SSE,10.4,24.2,N/A,,Mostly Cloudy,160,2013-04-16 08:02:00
4:54 AM,53.1,44.1,71,30.22,10.0,SSE,11.5,20.7,N/A,,Overcast,150,2013-04-16 08:54:00
5:54 AM,53.1,45.0,74,30.20,10.0,SSE,13.8,25.3,N/A,,Overcast,150,2013-04-16 09:54:00
6:21 AM,53.6,44.6,72,30.21,10.0,South,12.7,26.5,N/A,,Scattered Clouds,180,2013-04-16 10:21:00
6:31 AM,53.6,46.4,77,30.21,10.0,SSE,13.8,23.0,N/A,,Mostly Cloudy,160,2013-04-16 10:31:00
6:54 AM,53.1,46.0,77,30.22,9.0,SSE,12.7,23.0,N/A,,Mostly Cloudy,160,2013-04-16 10:54:00
7:54 AM,54.0,46.0,75,30.24,9.0,SSE,9.2,21.9,N/A,,Mostly Cloudy,160,2013-04-16 11:54:00
8:54 AM,55.0,46.9,74,30.23,9.0,Calm,Calm,-,N/A,,Mostly Cloudy,0,2013-04-16 12:54:00
9:47 AM,55.4,48.2,77,30.20,6.0,South,13.8,28.8,0.00,Rain,Light Rain,170,2013-04-16 13:47:00
9:54 AM,55.0,48.9,80,30.20,9.0,West,8.1,26.5,0.00,,Mostly Cloudy,260,2013-04-16 13:54:00
10:08 AM,55.4,48.2,77,30.21,10.0,West,11.5,26.5,N/A,,Overcast,270,2013-04-16 14:08:00
10:54 AM,55.9,48.9,77,30.21,10.0,Variable,6.9,-,N/A,,Overcast,0,2013-04-16 14:54:00
11:54 AM,57.9,50.0,75,30.19,10.0,Calm,Calm,-,N/A,,Overcast,0,2013-04-16 15:54:00
12:40 PM,57.2,50.0,77,30.20,10.0,SE,10.4,-,0.00,,Overcast,140,2013-04-16 16:40:00
12:54 PM,57.9,50.0,75,30.19,10.0,Calm,Calm,-,0.00,,Overcast,0,2013-04-16 16:54:00
1:54 PM,60.1,51.1,72,30.18,10.0,Variable,3.5,-,N/A,,Overcast,0,2013-04-16 17:54:00
2:54 PM,62.1,52.0,70,30.15,10.0,Variable,3.5,-,N/A,,Overcast,0,2013-04-16 18:54:00
3:54 PM,64.0,53.1,67,30.09,10.0,SSE,9.2,19.6,N/A,,Mostly Cloudy,150,2013-04-16 19:54:00
4:54 PM,66.9,53.1,61,30.08,10.0,Calm,Calm,-,N/A,,Clear,0,2013-04-16 20:54:00
5:54 PM,68.0,54.0,61,30.06,10.0,Variable,5.8,-,N/A,,Clear,0,2013-04-16 21:54:00
6:54 PM,69.1,54.0,58,30.07,10.0,ESE,10.4,17.3,N/A,,Overcast,110,2013-04-16 22:54:00
7:54 PM,68.0,55.0,63,30.06,10.0,Variable,4.6,-,0.01,,Mostly Cloudy,0,2013-04-16 23:54:00
8:02 PM,68.0,53.6,60,30.06,10.0,Calm,Calm,-,N/A,Thunderstorm,Mostly Cloudy,0,2013-04-17 00:02:00
8:17 PM,66.2,55.4,68,30.07,7.0,Calm,Calm,-,0.01,Rain,Light Rain,0,2013-04-17 00:17:00
8:54 PM,66.0,55.9,70,30.07,10.0,Variable,4.6,-,0.01,,Overcast,0,2013-04-17 00:54:00
9:54 PM,64.9,55.9,73,30.09,10.0,NNE,3.5,-,0.00,,Overcast,30,2013-04-17 01:54:00
10:54 PM,61.0,59.0,93,30.12,10.0,Calm,Calm,-,0.10,,Overcast,0,2013-04-17 02:54:00
11:19 PM,60.8,59.0,94,30.13,9.0,SSW,3.5,-,N/A,,Overcast,210,2013-04-17 03:19:00
11:42 PM,60.8,59.0,94,30.13,9.0,Variable,3.5,-,N/A,,Overcast,0,2013-04-17 03:42:00
11:54 PM,61.0,59.0,93,30.13,7.0,Calm,Calm,-,0.00,Rain,Light Rain,0,2013-04-17 03:54:00